User: anonymous   Login
Location: Allen Fire Department Station 4
(33.1073°N, 96.6988°W)
Time: 11:42:07
(UTC+00:00)
Language:

deb Kosmos-252 - Orbit

View from above orbital plane
View from above orbital plane
View from above satellite
View from above satellite

Ground track
Ground track

The orbit data is extracted from the following two-line orbital elements,

1 18597U 68097EQ  22268.37913518  .00000180  00000-0  35037-3 0  9997
2 18597  62.2520 284.3952 0794128 121.7533 246.3331 12.71924606410752
Epoch (UTC): 25 September 2022 09:05:57
Eccentricity: 0.0794128
inclination: 62.2520°
perigee height: 758 km
apogee height: 1990 km
right ascension of ascending node: 284.3952°
argument of perigee: 121.7533°
revolutions per day: 12.71924606
mean anomaly at epoch: 246.3331°
orbit number at epoch: 41075

The dashed part of the orbit path shows where the satellite is in the earth's shadow,  

DLR